星链-30497 (STARLINK-30497 )

导读

STARLINK-30497是美国SpaceX星链星座的卫星,于2023年10月5日发射。它归属于美国太空探索技术公司的星链互联网星座项目,承担全球低带宽互联网覆盖服务,为偏远地区、海事航空等场景提供卫星互联网接入能力,运行在近地轨道,是星链大规模组网中的一员,助力星座完成全球覆盖布局。

基本信息
目录编号:
58011
目录名称:
STARLINK-30497
国际标识:
2023-153W
轨道中心:
EARTH
卫星名称:
星链-30497
卫星全名:
星链-30497 (STARLINK-30497 )
卫星状态:
在轨 (已飞行989 天)
发射日期:
2023-10-05 UTC
国别 :
美国 (US)
星等 :
--
轨道信息
数据来源 国际轨道数据 AOE轨道数据
星历时间 2026-06-19T22:02:05+0800
20小时前
查看轨道信息
2026-06-16T07:00:00+0800
4天前
查看轨道信息
半长轴 6861.188km 6861.148km
偏心率 0.0001784 0.0001382
轨道倾角 43.003° 43.001°
近地点辐角 290.125° 241.513°
升交点赤经 211.274° 231.753°
平近点角 69.941° 312.230°
近地点 481.826km 482.062km
远地点 484.276km 483.96km
周期 94.267分钟 94.266分钟
每日圈数 15.275795 15.275928
详细信息
固有亮度:
5
最大亮度:
0.3
卫星平台:
Starlink v2.0 mini
覆盖范围:
全球
运营商:
太空探索技术公司
运营商所在国:
美国
制造商(研发单位):
太空探索技术公司
制造商所在国:
美国
使用方式:
暂无
卫星简介
星链(Starlink)计划是由太空探索技术公司(SpaceX)提出的一个巨型低轨卫星互联网星座项目,计划在2019年至2024年间在太空搭建由约1.2万颗卫星组成的“星链”网络,其中1584颗将部署在地球上空550千米处的近地轨道,并从2020年开始工作。该卫星仍在工作。
2D轨道图
3D轨道图
轨道高度分析图
轨道倾角分析图
轨道综合分析图
查看轨道综合分析图